Flag Weather past 2 weeks in Oshawa, Ontario, Canada

Now
30 °F

Partly cloudy.


Feels Like: 21 °F
Forecast: 26 / 30 °F
Wind: 10 mph from North

Location: Toronto Buttonville

Current Time: Nov 27, 2014 at 7:44:45 PM

Latest Report: Nov 27, 2014 at 7:00 PM


Visibility: 15 mi

Pressure: 30.11 "Hg

Humidity: 75%

Dew point: 23 °F

Location of OshawaLocation

Historic Weather in Oshawa — Graph

°F

Oshawa temperature yesterday

Maximum temperature yesterday: 34 °F (at 9:00 AM)
Minimum temperature yesterday: 32 °F (at 12:00 AM)
Average temperature yesterday: 33 °F

Past Weeks' High & Low Weather Summary

 TemperatureHumidityPressure
High61 °F (Nov 24, 1:00 PM)100% (Nov 17, 12:00 AM)30.45 "Hg (Nov 17, 12:00 AM)
Low16 °F (Nov 18, 6:00 AM)46% (Nov 20, 3:00 PM)29.13 "Hg (Nov 24, 1:00 PM)
Average31 °F74%29.97 "Hg
* Reported Nov 12 7:00 PM — Nov 27 7:00 PM, Oshawa, Weather by CustomWeather, © 2014

Note: Actual official high and low records may vary slightly from our data, if they occured in-between our weather recording intervals... More about our weather records

Advertising

Oshawa weather history for previous 24 hours

 ConditionsComfort  
Time TempWeatherWind HumidityBarometerVisibility
7:00 PM
Nov 27
30 °FPartly cloudy.10 mph75%30.11 "Hg15 mi
6:00 PM30 °FPartly cloudy.9 mph69%30.10 "Hg15 mi
5:00 PM30 °FMostly cloudy.9 mph69%30.09 "Hg15 mi
4:00 PM32 °FPartly sunny.10 mph64%30.09 "Hg15 mi
3:00 PM34 °FPartly sunny.8 mph65%30.06 "Hg15 mi
2:00 PM34 °FPartly sunny.7 mph60%30.06 "Hg15 mi
1:00 PM34 °FBroken clouds.10 mph60%30.06 "Hg15 mi
12:00 PM34 °FPartly sunny.12 mph60%30.08 "Hg15 mi
11:00 AM32 °FPartly sunny.8 mph75%30.09 "Hg15 mi
10:00 AM28 °FLight snow. Partly sunny.2 mph80%30.09 "Hg14 mi
9:00 AM28 °FSnow flurries. Partly sunny.3 mph74%30.08 "Hg10 mi
8:00 AM27 °FSnow flurries. Mostly cloudy.2 mph80%30.08 "Hg10 mi
7:00 AM27 °FOvercast.3 mph74%30.08 "Hg15 mi
6:00 AM28 °FOvercast.3 mph74%30.06 "Hg15 mi
5:00 AM28 °FPassing clouds.3 mph74%30.06 "Hg15 mi
4:00 AM28 °FOvercast.2 mph74%30.07 "Hg15 mi
3:00 AM28 °FPassing clouds.3 mph69%30.08 "Hg15 mi
2:00 AM28 °FPassing clouds.7 mph74%30.08 "Hg15 mi
1:00 AM30 °FPassing clouds.3 mph64%30.09 "Hg15 mi
12:00 AM30 °FPassing clouds.7 mph64%30.09 "Hg15 mi
11:00 PM
Nov 26
32 °FPassing clouds.5 mph64%30.09 "Hg15 mi
10:00 PM32 °FPassing clouds.2 mph69%30.10 "Hg15 mi
9:00 PM32 °FPassing clouds.5 mph69%30.10 "Hg15 mi
8:00 PM32 °FPassing clouds.6 mph69%30.09 "Hg15 mi
7:00 PM32 °FOvercast.6 mph69%30.11 "Hg15 mi
Weather by CustomWeather, © 2014

See weather overviewHow to use our weather pages